Vorticity
23 25 25 25 25 25 23 19 14 13 16 22 21 20 17 16 16 16 16 16 15 12 8 6 5 5 5 5 5 4 4 3 4 5 5 5 4 4 4 4 4 4 4 5 5 6 6 6 6 5 5 4 6 8 9 8 6 5 4 3 3 3 3 4 4 4 3 1 -1
32 30 27 25 24 22 19 16 16 20 25 30 22 13 6 6 12 15 16 16 14 11 8 6 5 5 5 4 4 4 4 4 5 6 6 6 5 4 4 4 4 4 4 5 5 5 6 6 5 5 5 5 8 9 9 6 3 0 -1 -2 -2 -1 0 3 4 3 1 -2 -3
29 24 20 20 19 18 18 18 20 21 20 19 11 2 -2 5 13 15 14 13 12 9 7 5 5 5 5 4 3 3 3 4 5 6 6 6 7 7 6 5 5 5 5 5 5 5 6 6 5 5 5 7 9 9 8 4 2 1 1 1 1 3 4 5 4 2 -1 -4 -4
15 12 13 15 16 17 19 21 20 15 10 7 3 1 3 13 18 16 11 8 8 7 6 6 5 4 4 3 2 2 2 4 5 5 6 6 10 10 9 6 5 4 4 4 5 5 6 6 6 6 6 8 10 9 7 4 6 10 14 16 15 14 11 7 3 -0 -3 -4 -2
3 4 9 14 14 14 14 15 11 6 3 4 8 13 18 23 25 20 12 5 4 5 5 6 5 4 2 1 1 2 3 4 4 4 4 7 12 12 10 6 4 4 4 4 4 5 6 6 6 7 8 9 10 9 8 10 16 22 27 28 26 22 16 10 9 9 10 11 10
-0 2 7 14 13 10 6 4 3 2 2 6 19 28 32 32 30 25 16 3 -0 1 4 5 4 3 2 1 2 3 4 4 3 2 4 8 12 11 7 4 4 4 4 4 4 5 6 6 6 7 8 9 9 10 11 16 21 24 23 22 22 22 20 19 21 25 29 30 23
6 4 7 13 10 5 2 3 5 4 3 6 22 32 35 30 26 21 13 -1 -5 -2 2 6 5 4 3 3 4 5 4 2 0 1 4 11 12 9 6 4 4 5 5 5 5 5 6 6 6 7 8 9 8 7 8 12 14 13 12 12 14 16 18 19 20 23 26 28 23
14 10 9 11 7 3 3 10 13 9 4 4 13 22 27 24 17 10 2 -6 -5 -1 4 7 7 6 5 5 6 5 3 -0 -1 2 8 14 11 8 6 6 6 7 7 6 6 5 5 5 5 6 7 8 6 5 4 5 6 7 8 9 10 12 12 12 13 16 20 23 25
20 16 12 9 5 2 2 9 10 7 2 2 4 10 15 15 6 -1 -6 -6 -2 2 8 12 10 9 7 7 6 4 2 -1 2 8 15 17 11 7 6 7 8 8 8 6 5 5 4 4 5 6 6 7 5 4 3 3 4 6 8 9 9 8 7 6 7 9 13 17 20
21 22 18 12 6 3 1 2 0 1 2 2 1 4 7 6 -1 -5 -5 -2 1 6 11 14 14 12 10 8 6 4 3 3 9 15 18 14 8 5 5 6 7 6 6 5 4 4 4 4 4 5 5 5 5 4 4 4 6 7 8 8 7 6 4 4 3 3 4 5 7
19 26 28 24 15 9 4 -2 -6 -2 4 4 1 2 3 0 -3 -4 -2 0 3 6 10 14 16 15 12 9 7 5 6 9 16 17 14 6 3 2 3 4 4 4 3 3 3 3 4 4 4 4 4 4 4 4 5 5 6 7 7 7 6 5 4 4 4 4 4 4 5
16 25 35 40 32 22 12 1 -1 6 11 7 3 3 3 0 -2 -1 1 3 4 5 7 12 15 15 13 10 8 8 10 15 16 10 4 -2 -1 0 2 3 4 4 4 4 4 4 5 5 5 4 4 4 4 5 5 6 6 5 5 5 5 5 5 6 6 6 5 5 5
9 17 29 42 40 31 19 8 13 18 18 7 6 6 7 5 4 4 5 6 4 4 6 10 13 14 13 11 10 11 13 15 7 -0 -5 -4 -1 2 5 7 6 6 6 6 6 6 5 5 5 5 5 5 6 6 6 6 5 5 4 4 4 4 5 6 6 5 4 3 4
5 9 17 30 33 27 18 12 19 22 18 5 6 11 14 12 10 10 9 8 5 4 5 8 11 13 13 12 12 13 12 6 -3 -7 -5 -0 4 7 9 10 9 8 7 7 6 5 5 5 5 6 6 6 6 6 6 6 6 5 5 4 4 5 5 5 5 4 3 3 4
5 6 9 15 19 17 12 8 14 16 14 5 6 11 17 18 15 13 10 8 4 4 5 8 10 11 12 12 13 11 6 -3 -7 -6 -0 6 9 11 12 10 9 8 7 6 5 4 4 4 5 6 6 7 7 7 7 7 7 6 6 6 5 5 5 4 3 3 3 4 5
6 6 6 7 8 7 5 2 4 7 8 7 7 9 13 16 14 12 8 4 1 2 4 8 10 11 11 11 11 7 2 -5 -4 0 6 10 12 12 11 9 7 6 5 4 4 4 4 4 5 6 7 8 8 8 7 7 7 6 6 6 5 5 4 3 3 3 4 4 4
9 7 5 5 5 4 2 -1 -2 -0 2 5 5 6 7 10 10 7 4 -0 -2 -1 3 7 11 12 12 11 10 7 3 0 3 6 10 13 12 11 8 6 6 5 4 4 4 4 4 5 6 7 8 9 8 8 7 6 6 6 5 5 4 4 3 3 3 4 4 4 5
14 10 7 5 5 5 4 2 -0 -2 -2 -0 1 3 4 6 7 6 3 -0 -3 -3 -0 4 10 14 16 14 12 9 7 6 8 10 12 12 10 8 6 5 5 4 4 4 4 4 4 5 6 8 8 8 7 6 5 4 4 4 4 4 3 3 3 3 3 4 4 4 5
22 19 15 11 9 7 6 5 3 1 -0 -2 -1 0 3 6 8 8 6 3 1 -1 -2 1 7 14 18 18 14 11 9 9 10 10 10 9 7 6 5 5 4 4 4 4 4 4 4 4 5 6 6 4 3 3 3 3 3 3 3 3 2 2 3 3 4 4 4 5 5
27 26 24 22 18 15 13 10 8 7 5 4 3 4 5 7 9 10 10 8 6 3 1 -0 3 10 16 19 15 12 11 11 11 9 7 5 4 4 4 3 3 2 2 2 2 2 2 2 3 3 2 1 1 1 2 2 3 3 2 2 2 2 3 3 4 4 4 5 4
20 24 26 28 27 25 23 21 18 16 15 14 14 15 15 15 14 14 13 13 11 8 5 2 2 5 11 17 16 13 11 10 8 6 3 3 4 3 2 0 -0 -0 0 0 1 2 2 2 2 2 2 1 2 2 2 3 3 2 2 2 2 2 3 3 4 4 4 4 4
9 14 19 24 27 28 28 27 25 23 21 21 22 23 23 23 21 19 18 16 14 13 12 9 6 6 8 14 15 14 10 6 3 1 2 4 6 4 2 0 -0 -0 0 1 2 3 4 4 5 4 4 3 3 3 3 2 2 2 2 2 2 2 3 3 4 4 4 4 3
6 8 11 16 20 23 24 25 24 23 22 20 20 21 22 23 23 23 22 22 22 23 24 23 18 14 12 13 16 14 10 4 0 0 3 6 6 5 3 2 2 2 2 3 4 5 6 6 6 7 6 5 4 4 3 2 2 2 2 2 2 3 3 4 4 4 4 4 3
7 8 9 10 14 16 19 20 20 20 18 17 15 15 16 17 20 24 27 30 32 33 34 33 29 24 19 17 18 16 12 6 3 4 6 8 6 4 2 2 3 3 3 3 5 6 6 6 6 6 7 6 5 4 3 2 3 3 4 4 4 4 4 4 4 4 4 4 4
7 8 9 10 12 13 15 16 16 15 15 13 12 12 12 14 18 23 28 31 33 34 34 32 29 26 23 20 20 18 14 10 8 8 8 8 7 5 3 3 4 4 3 4 5 6 7 7 6 6 6 6 6 6 5 6 6 6 6 6 6 5 5 5 4 4 4 4 4
4 6 8 11 14 15 15 14 14 13 13 12 11 10 11 13 17 22 26 28 30 29 28 26 23 21 19 18 17 16 15 13 12 12 11 10 8 7 7 6 5 5 4 5 6 7 7 7 7 6 6 7 7 8 8 8 8 8 7 7 7 6 6 5 5 4 4 4 4
4 5 6 9 13 15 16 15 14 13 13 12 10 10 11 13 16 20 23 26 27 26 24 21 18 16 15 14 13 13 12 12 12 12 12 12 11 11 10 9 7 6 5 6 6 7 7 7 7 8 9 10 11 11 10 9 8 8 8 7 7 6 6 5 5 5 5 5 5
7 6 5 6 9 12 14 15 15 14 13 11 10 9 10 11 14 18 21 24 25 24 23 20 17 15 13 12 12 11 11 11 11 12 13 14 14 13 12 10 9 8 8 8 9 9 10 10 10 11 12 13 13 13 11 9 8 7 7 6 6 6 6 5 5 5 5 4 4
10 8 6 4 5 7 10 12 12 13 12 11 10 9 9 9 12 14 17 20 22 22 21 19 17 15 14 14 14 14 14 14 14 15 16 16 16 16 15 14 14 14 14 15 14 13 13 12 12 13 13 14 14 13 12 10 8 7 6 6 6 6 6 5 5 5 4 4 4
12 11 9 6 4 4 6 8 9 10 11 11 11 10 10 10 10 13 15 18 20 20 19 17 17 17 18 18 18 19 20 20 19 18 18 18 17 17 17 18 18 18 17 16 14 13 12 12 12 12 13 13 14 13 12 10 9 8 7 7 7 6 6 6 5 4 4 4 4
12 12 11 8 6 4 5 6 7 7 8 9 11 12 12 12 13 15 17 19 18 18 17 17 18 18 18 18 19 19 19 18 17 16 15 14 13 13 13 13 13 12 11 11 10 10 10 10 11 12 12 13 13 13 13 12 11 10 9 8 7 7 6 5 5 4 4 5 6
8 9 10 9 6 5 5 7 8 8 7 7 9 11 13 15 16 17 18 18 17 16 15 15 14 13 12 12 11 10 10 10 10 9 8 7 6 6 6 6 6 6 6 6 7 7 8 9 10 11 12 13 13 13 13 12 12 10 9 8 7 6 5 5 5 5 6 6 7
3 5 6 6 4 4 5 7 9 10 9 8 8 9 12 14 16 17 18 18 16 14 11 9 7 6 4 4 4 4 5 6 5 5 5 5 5 5 5 6 6 6 5 5 6 6 7 8 9 10 11 12 12 12 11 11 10 9 8 7 6 6 6 6 6 6 7 8 8
-0 1 2 2 1 1 2 3 6 10 12 11 10 10 10 12 14 15 16 16 15 13 10 8 6 6 5 6 8 10 11 11 10 9 8 8 9 9 8 8 8 7 7 6 6 7 7 8 9 9 10 10 10 10 9 8 8 7 6 6 6 6 6 6 7 7 8 8 8
-2 -2 -2 -2 -3 -3 -2 -2 1 4 8 11 12 13 12 12 12 12 13 13 13 12 12 10 10 10 11 13 15 16 16 14 13 12 12 11 11 11 10 9 9 8 8 8 8 8 8 8 8 8 8 8 8 8 7 7 6 6 6 6 6 6 6 7 7 8 8 8 8
-1 -2 -2 -4 -6 -7 -7 -7 -5 -2 2 6 10 13 15 15 13 12 11 10 10 10 10 9 10 10 12 13 13 13 13 12 10 10 10 10 10 9 8 8 7 8 8 8 8 8 8 8 8 8 8 8 7 7 7 6 6 6 6 6 6 7 7 8 8 8 8 8 7
1 0 -0 -2 -4 -6 -8 -8 -7 -6 -3 0 5 10 14 17 18 17 14 11 9 8 7 7 7 8 9 9 9 9 8 8 7 7 7 8 8 7 6 6 6 6 7 7 7 8 8 7 7 7 7 7 7 7 7 7 6 6 7 7 7 7 7 8 8 7 7 7 6
3 2 2 2 1 -0 -2 -4 -5 -5 -4 -2 0 4 8 13 18 20 20 16 12 9 7 6 6 7 7 7 7 7 6 7 7 6 6 6 7 6 6 5 6 6 6 7 7 7 7 7 7 7 7 7 6 6 6 6 6 7 7 7 7 7 7 7 7 7 6 6 6
6 4 4 4 4 4 3 2 0 -1 -1 -1 -1 -1 1 4 9 14 18 19 17 14 11 9 8 8 7 7 7 7 7 7 7 7 7 7 7 7 7 7 6 7 7 8 8 8 7 7 7 7 7 7 6 6 6 7 7 7 7 7 7 7 7 7 7 7 7 6 6
8 6 5 5 5 5 5 5 4 3 2 1 0 -0 -0 -0 2 6 11 16 18 18 16 14 12 10 9 8 8 8 8 8 8 9 9 8 8 9 9 9 8 8 8 9 8 8 8 7 7 7 6 6 6 6 7 7 7 7 7 8 7 7 7 7 7 7 7 7 7
10 8 6 5 6 6 6 6 5 4 4 3 3 3 3 2 2 2 5 9 14 17 18 16 13 12 11 10 10 10 10 10 10 10 10 10 10 10 10 10 9 9 8 8 8 8 7 7 6 6 6 6 6 7 7 7 7 8 8 8 8 8 8 7 8 8 8 8 8
Height
5633 5635 5638 5640 5641 5643 5645 5647 5650 5652 5655 5657 5659 5661 5664 5666 5668 5670 5672 5674 5676 5678 5680 5682 5684 5685 5687 5690 5692 5694 5696 5699 5701 5703 5704 5706 5708 5709 5711 5713 5715 5716 5718 5719 5720 5720 5721 5722 5723 5724 5725 5726 5726 5727 5727 5728 5729 5730 5731 5732 5732 5733 5733 5734 5735 5735 5736 5736 5736
5634 5636 5638 5639 5640 5642 5645 5648 5650 5653 5655 5658 5660 5662 5664 5665 5667 5669 5670 5672 5674 5676 5678 5680 5681 5683 5685 5688 5690 5692 5695 5697 5699 5701 5702 5704 5705 5707 5709 5711 5713 5715 5716 5717 5718 5719 5719 5720 5721 5722 5723 5724 5724 5724 5725 5725 5727 5727 5728 5728 5729 5730 5730 5731 5732 5733 5734 5734 5734
5633 5635 5637 5639 5640 5643 5646 5649 5652 5655 5658 5660 5661 5662 5663 5665 5666 5668 5669 5670 5672 5674 5676 5678 5680 5682 5684 5686 5689 5691 5693 5695 5697 5699 5700 5702 5704 5705 5707 5709 5711 5713 5714 5715 5716 5717 5717 5718 5719 5720 5720 5721 5721 5722 5722 5723 5724 5725 5725 5725 5726 5727 5728 5729 5730 5731 5731 5732 5732
5631 5633 5636 5638 5640 5643 5646 5650 5653 5657 5660 5661 5661 5662 5663 5664 5666 5666 5667 5669 5670 5673 5675 5676 5679 5681 5683 5685 5688 5690 5692 5694 5695 5697 5698 5700 5702 5704 5705 5707 5709 5710 5712 5713 5714 5715 5715 5716 5717 5718 5718 5719 5719 5720 5720 5721 5722 5723 5723 5724 5725 5725 5726 5727 5729 5729 5730 5730 5730
5631 5633 5635 5637 5640 5642 5646 5650 5654 5657 5659 5660 5660 5661 5663 5664 5665 5666 5666 5667 5670 5671 5673 5675 5678 5680 5682 5684 5686 5688 5690 5692 5693 5695 5696 5698 5700 5702 5703 5705 5707 5709 5710 5711 5712 5712 5713 5714 5715 5715 5716 5716 5717 5718 5719 5720 5720 5721 5722 5722 5723 5724 5725 5726 5727 5727 5727 5728 5728
5631 5633 5635 5637 5639 5641 5645 5648 5652 5655 5657 5658 5659 5661 5663 5665 5665 5665 5665 5666 5669 5671 5673 5675 5677 5679 5681 5683 5685 5687 5688 5690 5691 5693 5695 5696 5698 5700 5701 5703 5705 5706 5707 5708 5709 5710 5711 5712 5713 5713 5714 5714 5715 5716 5717 5718 5719 5720 5720 5721 5721 5722 5723 5724 5724 5725 5725 5725 5725
5632 5634 5635 5637 5639 5641 5644 5647 5650 5653 5656 5657 5658 5659 5660 5662 5664 5664 5665 5667 5668 5670 5672 5674 5676 5678 5680 5682 5684 5685 5687 5688 5690 5691 5693 5694 5696 5698 5699 5701 5702 5704 5705 5706 5707 5708 5709 5710 5711 5711 5712 5712 5713 5714 5715 5716 5717 5717 5718 5719 5719 5720 5720 5721 5722 5722 5723 5723 5723
5632 5634 5635 5637 5639 5641 5644 5647 5649 5652 5655 5658 5658 5658 5658 5660 5662 5663 5664 5666 5667 5669 5671 5673 5675 5677 5679 5681 5682 5684 5685 5687 5688 5690 5691 5692 5694 5695 5697 5699 5700 5701 5702 5703 5705 5705 5707 5708 5709 5710 5710 5711 5711 5712 5713 5714 5715 5715 5716 5716 5717 5718 5718 5719 5720 5720 5721 5721 5721
5632 5634 5635 5637 5639 5641 5644 5646 5649 5652 5655 5658 5657 5657 5657 5659 5660 5662 5663 5665 5666 5668 5670 5672 5674 5676 5677 5679 5681 5682 5684 5685 5687 5688 5689 5690 5691 5693 5695 5696 5698 5699 5700 5701 5702 5703 5705 5706 5707 5708 5708 5709 5710 5711 5712 5712 5713 5714 5714 5715 5715 5716 5717 5717 5718 5719 5719 5720 5720
5632 5633 5635 5637 5638 5640 5643 5645 5648 5651 5654 5655 5654 5655 5657 5659 5659 5660 5661 5664 5665 5667 5669 5670 5672 5674 5676 5678 5679 5681 5682 5684 5685 5686 5687 5688 5689 5691 5693 5694 5695 5696 5698 5699 5700 5701 5703 5704 5705 5706 5706 5707 5708 5709 5710 5711 5712 5713 5713 5714 5714 5715 5715 5716 5717 5717 5717 5717 5717
5632 5633 5634 5636 5638 5640 5642 5644 5646 5649 5650 5651 5652 5654 5656 5657 5657 5658 5659 5662 5664 5666 5667 5669 5671 5673 5674 5676 5677 5679 5680 5682 5683 5684 5685 5686 5687 5689 5691 5692 5694 5695 5696 5697 5699 5700 5701 5702 5703 5704 5705 5706 5707 5708 5709 5710 5710 5711 5712 5712 5713 5714 5714 5715 5715 5715 5715 5715 5715
5633 5634 5635 5636 5637 5639 5641 5644 5645 5647 5648 5650 5651 5653 5654 5654 5655 5656 5658 5660 5662 5664 5666 5668 5670 5671 5673 5674 5675 5677 5678 5680 5681 5682 5683 5684 5686 5688 5689 5691 5692 5693 5695 5696 5697 5699 5700 5701 5702 5703 5704 5705 5705 5706 5707 5708 5709 5710 5710 5711 5711 5712 5712 5713 5713 5713 5713 5713 5714
5634 5635 5635 5636 5637 5639 5640 5643 5645 5645 5647 5648 5649 5650 5650 5651 5653 5655 5657 5659 5661 5663 5665 5666 5668 5669 5671 5672 5673 5675 5676 5677 5679 5680 5681 5683 5685 5687 5688 5690 5691 5692 5693 5695 5696 5697 5698 5699 5700 5701 5702 5703 5704 5705 5706 5707 5708 5708 5709 5709 5710 5710 5711 5711 5711 5711 5712 5712 5713
5631 5633 5634 5635 5635 5637 5639 5641 5643 5644 5645 5646 5647 5648 5649 5650 5652 5654 5656 5658 5660 5662 5663 5665 5666 5667 5669 5670 5671 5672 5674 5675 5677 5679 5680 5682 5684 5685 5687 5688 5689 5690 5692 5693 5694 5695 5696 5698 5699 5700 5701 5702 5703 5703 5704 5705 5706 5706 5707 5708 5708 5709 5709 5709 5710 5710 5710 5711 5711
5630 5631 5632 5634 5635 5636 5638 5640 5641 5643 5644 5645 5646 5648 5649 5650 5651 5653 5655 5656 5658 5660 5662 5663 5664 5665 5666 5667 5669 5670 5672 5674 5675 5677 5679 5681 5682 5684 5685 5686 5687 5689 5690 5691 5692 5694 5695 5696 5697 5698 5699 5700 5701 5702 5703 5703 5704 5705 5705 5706 5706 5707 5708 5708 5708 5709 5709 5709 5709
5630 5632 5633 5633 5634 5636 5637 5639 5640 5641 5642 5644 5645 5646 5648 5650 5650 5652 5654 5655 5656 5658 5660 5661 5662 5663 5664 5665 5667 5669 5671 5672 5674 5676 5677 5679 5680 5682 5683 5684 5685 5687 5688 5689 5690 5692 5693 5694 5695 5696 5698 5698 5699 5700 5701 5701 5702 5703 5704 5704 5705 5705 5706 5706 5706 5707 5707 5707 5707
5630 5632 5633 5634 5635 5636 5637 5638 5639 5640 5642 5643 5644 5645 5647 5649 5650 5650 5652 5653 5655 5656 5657 5659 5660 5661 5662 5664 5665 5667 5669 5670 5672 5674 5675 5677 5678 5679 5680 5682 5683 5685 5686 5687 5689 5690 5691 5692 5694 5695 5696 5697 5697 5698 5699 5700 5700 5701 5702 5702 5703 5703 5704 5704 5704 5704 5704 5704 5704
5629 5630 5632 5634 5634 5635 5636 5637 5638 5640 5641 5642 5644 5645 5646 5648 5649 5650 5650 5651 5653 5654 5655 5657 5658 5659 5661 5662 5664 5665 5666 5668 5669 5671 5672 5674 5675 5677 5678 5680 5681 5683 5684 5685 5687 5688 5689 5690 5692 5693 5694 5695 5695 5696 5697 5698 5698 5699 5700 5700 5700 5701 5701 5702 5702 5702 5702 5702 5702
5628 5629 5630 5632 5633 5634 5635 5635 5636 5638 5640 5641 5642 5644 5645 5647 5648 5649 5650 5650 5651 5652 5653 5655 5657 5658 5659 5661 5662 5663 5664 5665 5666 5668 5669 5671 5673 5675 5676 5678 5679 5681 5682 5683 5685 5686 5687 5688 5690 5690 5691 5692 5693 5694 5695 5695 5696 5697 5697 5698 5698 5699 5699 5699 5700 5700 5700 5700 5700
5627 5628 5629 5630 5631 5632 5633 5634 5635 5636 5637 5639 5640 5642 5643 5645 5646 5647 5648 5649 5649 5650 5652 5654 5655 5656 5658 5659 5660 5661 5662 5663 5664 5665 5667 5669 5670 5672 5674 5676 5677 5679 5680 5681 5682 5684 5685 5686 5687 5688 5689 5690 5691 5692 5693 5693 5694 5695 5695 5695 5696 5696 5697 5697 5698 5698 5698 5698 5698
5625 5626 5626 5627 5628 5630 5631 5632 5633 5634 5635 5636 5638 5639 5641 5642 5643 5645 5646 5647 5648 5649 5650 5652 5653 5654 5656 5657 5658 5659 5660 5661 5662 5663 5665 5666 5668 5670 5672 5674 5675 5676 5678 5679 5680 5681 5683 5684 5685 5686 5687 5688 5689 5690 5690 5691 5692 5692 5693 5693 5694 5694 5695 5695 5695 5695 5695 5696 5696
5624 5624 5625 5625 5626 5627 5628 5629 5630 5631 5632 5634 5635 5637 5638 5639 5641 5642 5644 5645 5646 5647 5648 5649 5650 5651 5653 5655 5656 5657 5658 5659 5660 5662 5664 5665 5667 5669 5670 5671 5673 5674 5675 5677 5678 5680 5681 5682 5683 5684 5685 5686 5687 5688 5688 5689 5690 5690 5690 5691 5691 5692 5692 5693 5693 5693 5693 5694 5694
5623 5623 5624 5625 5625 5625 5626 5627 5628 5629 5630 5632 5633 5634 5635 5637 5638 5640 5641 5642 5643 5644 5645 5646 5647 5649 5650 5652 5654 5655 5657 5658 5660 5661 5663 5665 5666 5667 5669 5670 5671 5672 5674 5675 5676 5678 5679 5680 5681 5682 5683 5684 5685 5686 5686 5687 5687 5688 5688 5689 5689 5690 5690 5690 5691 5691 5691 5691 5691
5622 5622 5623 5624 5624 5625 5625 5626 5627 5628 5629 5630 5631 5633 5634 5635 5636 5638 5639 5640 5641 5643 5644 5645 5646 5647 5649 5650 5652 5654 5655 5657 5658 5660 5662 5663 5665 5666 5667 5668 5670 5670 5672 5673 5675 5676 5677 5678 5679 5680 5681 5682 5683 5684 5684 5685 5685 5686 5686 5687 5687 5688 5688 5688 5689 5689 5689 5689 5689
5621 5621 5622 5623 5624 5624 5625 5625 5626 5627 5628 5630 5631 5632 5633 5634 5635 5637 5638 5640 5641 5642 5643 5644 5645 5647 5648 5649 5651 5653 5654 5655 5657 5659 5660 5662 5663 5665 5665 5666 5668 5669 5670 5671 5673 5674 5675 5676 5677 5678 5679 5680 5681 5681 5682 5683 5684 5684 5685 5685 5685 5685 5686 5686 5687 5687 5687 5687 5687
5620 5621 5621 5622 5623 5623 5624 5625 5626 5627 5628 5629 5630 5631 5632 5633 5634 5636 5637 5638 5640 5641 5642 5644 5645 5646 5647 5649 5650 5652 5653 5655 5656 5657 5659 5660 5661 5662 5663 5664 5665 5666 5668 5669 5670 5672 5673 5674 5675 5676 5677 5678 5679 5680 5680 5681 5681 5682 5682 5683 5683 5684 5684 5684 5685 5685 5685 5685 5685
5620 5620 5621 5621 5622 5623 5624 5625 5627 5627 5628 5628 5629 5630 5631 5632 5633 5635 5636 5637 5638 5640 5641 5642 5644 5645 5646 5648 5649 5650 5652 5653 5654 5655 5657 5658 5659 5660 5661 5662 5663 5664 5665 5667 5668 5670 5671 5672 5673 5674 5675 5676 5677 5677 5678 5679 5680 5680 5680 5681 5681 5682 5682 5682 5683 5683 5683 5683 5683
5620 5620 5620 5621 5622 5623 5624 5625 5625 5626 5627 5628 5628 5630 5630 5631 5632 5634 5635 5636 5637 5639 5640 5641 5642 5644 5645 5646 5648 5649 5650 5651 5652 5654 5655 5656 5657 5658 5659 5660 5661 5662 5664 5665 5666 5668 5669 5670 5671 5672 5673 5674 5675 5675 5676 5677 5678 5678 5679 5679 5679 5680 5680 5680 5680 5681 5681 5681 5681
5619 5620 5620 5620 5622 5623 5624 5624 5624 5625 5626 5627 5628 5629 5630 5631 5632 5633 5634 5635 5636 5637 5639 5640 5641 5642 5643 5645 5645 5647 5648 5649 5650 5651 5653 5654 5655 5656 5658 5659 5660 5661 5662 5664 5665 5666 5667 5668 5669 5670 5670 5671 5672 5673 5674 5675 5675 5676 5676 5677 5677 5677 5678 5678 5678 5679 5679 5679 5679
5619 5620 5620 5620 5621 5622 5623 5623 5623 5624 5625 5626 5627 5628 5629 5630 5631 5632 5633 5634 5635 5636 5637 5638 5640 5641 5642 5643 5644 5645 5646 5647 5648 5650 5651 5652 5654 5655 5656 5657 5659 5660 5661 5662 5663 5664 5665 5666 5667 5667 5668 5669 5670 5671 5672 5673 5674 5674 5675 5675 5675 5675 5675 5676 5676 5676 5676 5677 5677
5619 5619 5620 5620 5620 5621 5622 5622 5623 5623 5624 5625 5626 5627 5628 5629 5630 5630 5631 5633 5634 5635 5636 5637 5639 5640 5641 5642 5643 5644 5645 5646 5648 5649 5650 5651 5653 5654 5655 5656 5657 5658 5659 5660 5661 5662 5663 5664 5665 5665 5666 5667 5668 5669 5670 5671 5671 5672 5672 5673 5673 5673 5673 5674 5674 5674 5674 5674 5675
5618 5619 5619 5619 5620 5620 5621 5622 5622 5623 5624 5625 5625 5626 5626 5627 5629 5630 5631 5632 5633 5634 5635 5636 5638 5639 5640 5641 5643 5644 5645 5646 5647 5648 5649 5650 5651 5652 5653 5654 5655 5656 5657 5658 5659 5660 5661 5662 5662 5663 5664 5665 5666 5667 5668 5669 5669 5670 5670 5670 5670 5671 5671 5671 5671 5671 5672 5672 5672
5617 5618 5618 5618 5619 5619 5620 5621 5621 5623 5624 5625 5625 5625 5625 5626 5628 5629 5630 5631 5632 5633 5634 5635 5636 5638 5639 5640 5642 5643 5644 5645 5646 5647 5647 5648 5649 5650 5651 5652 5653 5654 5655 5656 5657 5658 5659 5660 5660 5661 5662 5664 5665 5665 5666 5666 5667 5667 5668 5668 5668 5669 5669 5669 5669 5669 5670 5670 5670
5616 5616 5617 5617 5618 5619 5619 5620 5621 5622 5622 5624 5625 5625 5625 5625 5626 5628 5629 5630 5631 5632 5633 5634 5635 5636 5638 5639 5640 5641 5642 5643 5644 5645 5645 5646 5647 5648 5649 5650 5651 5652 5653 5654 5655 5655 5656 5657 5659 5660 5660 5662 5662 5663 5664 5664 5665 5665 5665 5666 5666 5666 5666 5667 5667 5667 5667 5667 5667
5614 5615 5615 5616 5617 5617 5618 5619 5620 5621 5621 5622 5623 5624 5624 5624 5625 5626 5627 5628 5630 5630 5632 5633 5634 5635 5636 5637 5638 5639 5640 5641 5642 5642 5643 5644 5645 5645 5646 5647 5648 5649 5650 5651 5652 5653 5654 5655 5656 5657 5659 5660 5660 5661 5662 5662 5663 5663 5663 5664 5664 5664 5665 5665 5665 5665 5665 5665 5665
5611 5612 5613 5614 5615 5616 5616 5617 5618 5619 5620 5621 5622 5623 5624 5624 5625 5625 5626 5627 5628 5629 5630 5631 5632 5633 5634 5635 5636 5637 5638 5638 5639 5640 5640 5641 5642 5643 5644 5645 5645 5646 5647 5648 5650 5650 5652 5653 5654 5655 5656 5657 5658 5659 5660 5660 5660 5661 5661 5662 5662 5662 5662 5662 5663 5663 5663 5663 5663
5607 5609 5610 5611 5612 5614 5615 5615 5616 5617 5618 5620 5620 5621 5623 5624 5624 5625 5625 5625 5626 5627 5628 5629 5630 5631 5632 5633 5634 5634 5635 5635 5636 5637 5638 5639 5640 5640 5641 5642 5643 5644 5645 5646 5647 5648 5649 5650 5652 5653 5654 5655 5656 5657 5658 5658 5659 5659 5660 5660 5660 5660 5660 5660 5660 5660 5660 5660 5660
5604 5605 5606 5608 5609 5610 5612 5613 5614 5615 5615 5617 5618 5620 5621 5622 5622 5623 5623 5623 5624 5625 5626 5627 5628 5629 5629 5630 5631 5632 5632 5633 5634 5635 5636 5637 5638 5639 5640 5640 5641 5642 5643 5644 5645 5646 5647 5648 5650 5651 5652 5653 5654 5655 5656 5656 5657 5657 5658 5658 5658 5658 5658 5658 5658 5658 5658 5658 5658
5600 5601 5603 5604 5605 5607 5609 5610 5611 5612 5613 5614 5615 5617 5618 5620 5620 5621 5621 5622 5622 5623 5624 5625 5625 5626 5627 5628 5629 5630 5630 5631 5632 5633 5634 5635 5636 5637 5638 5639 5639 5640 5641 5642 5643 5644 5645 5646 5647 5649 5650 5651 5652 5653 5654 5654 5655 5655 5655 5656 5656 5656 5656 5656 5656 5656 5655 5655 5655
5596 5597 5599 5600 5602 5604 5605 5606 5608 5610 5611 5612 5613 5614 5615 5616 5618 5619 5619 5620 5620 5621 5622 5623 5624 5625 5625 5625 5626 5627 5628 5629 5630 5631 5632 5633 5634 5635 5636 5637 5638 5638 5639 5640 5641 5642 5643 5644 5645 5646 5647 5648 5649 5650 5651 5652 5652 5653 5653 5653 5654 5654 5654 5654 5653 5653 5653 5653 5653
5592 5593 5595 5596 5598 5600 5601 5603 5605 5606 5608 5610 5610 5612 5613 5614 5615 5616 5617 5618 5619 5619 5620 5621 5623 5624 5624 5624 5625 5625 5626 5627 5629 5630 5630 5631 5632 5633 5634 5635 5636 5637 5637 5638 5639 5640 5641 5642 5643 5644 5645 5646 5647 5648 5648 5649 5650 5650 5650 5651 5651 5651 5651 5651 5651 5651 5650 5650 5650